Tracking 29892 objects as of 21-Nov-2024
HD Live streaming from Space Station
objects crossing your sky now

STARLINK-2188

Track STARLINK-2188 now!
10-day predictions
STARLINK-2188 is classified as:


NORAD ID: 48563
Int'l Code: 2021-041L
Perigee: 553.4 km
Apogee: 555.2 km
Inclination: 53.1 °
Period: 95.6 minutes
Semi major axis: 6925 km
RCS: Unknown
Launch date: May 15, 2021
Source: United States (US)
Launch site: AIR FORCE EASTERN TEST RANGE (AFETR)
Your satellite tracking list
Your tracking list is empty




NASA's NSSDC Master Catalog

Two Line Element Set (TLE):
1 48563U 21041L   24325.78483153  .00004543  00000-0  32351-3 0  9992
2 48563  53.0528  99.0555 0001316 121.0578 239.0540 15.06417734193777
Source of the keplerian elements: AFSPC